GW3419 Weather Reports


Display with metric or nautical units.
time (UTC)temp
F
wind
direction
speed
MPH
gust
MPH
rain 1hr
in
rain 24hr
in
rain mn
in
humidity
%
barometer
mb
20260902024136 74 49 0.0 1.0 0.00 0.00 0.00 90 1009.1
20260902023632 74 127 0.0 1.0 0.00 0.00 0.00 89 1009.0
20260902023132 74 117 0.0 1.0 0.00 0.00 0.00 89 1009.1
20260902022631 74 320 0.0 2.0 0.00 0.00 0.00 89 1008.9
20260902022127 74 148 0.0 2.0 0.00 0.00 0.00 89 1009.0
20260902021622 74 132 0.0 1.0 0.00 0.00 0.00 88 1008.8
20260902021117 74 135 0.0 1.0 0.00 0.00 0.00 88 1009.0
20260902020613 74 147 0.0 1.0 0.00 0.00 0.00 87 1009.2
20260902020109 75 217 0.0 1.0 0.00 0.00 0.00 87 1009.2
20260902015604 75 212 0.0 1.0 0.00 0.00 0.00 87 1009.0
20260902015100 75 50 0.0 0.0 0.00 0.00 0.00 87 1008.9
20260902014556 76 142 0.0 1.0 0.00 0.00 0.00 86 1009.0
20260902014051 76 235 0.0 2.0 0.00 0.00 0.00 85 1008.9
20260902013550 76 55 0.0 1.0 0.00 0.00 0.00 84 1008.8
20260902013046 77 217 0.0 1.0 0.00 0.00 0.00 84 1009.0
20260902012541 77 218 2.0 2.0 0.00 0.00 0.00 83 1008.9
20260902012037 77 215 2.0 3.0 0.00 0.00 0.00 83 1009.0
20260902011532 77 211 2.0 3.0 0.00 0.00 0.00 82 1008.9
20260902011031 76 197 1.0 2.0 0.00 0.00 0.00 84 1008.6
20260902010531 76 153 0.0 2.0 0.00 0.00 0.00 84 1009.0
20260902010027 76 145 0.0 1.0 0.00 0.00 0.00 85 1008.8
20260902005525 76 321 0.0 1.0 0.00 0.00 0.00 85 1008.9
20260902005021 77 98 0.0 1.0 0.00 0.00 0.00 84 1008.6
20260902004520 77 269 0.0 2.0 0.00 0.00 0.00 83 1008.9
20260902004016 77 343 0.0 2.0 0.00 0.00 0.00 84 1009.0
20260902003511 78 44 0.0 1.0 0.00 0.00 0.00 83 1008.9
20260902003006 78 337 0.0 2.0 0.00 0.00 0.00 81 1008.9
20260902002502 79 8 0.0 1.0 0.00 0.00 0.00 80 1008.6
20260902001956 79 326 0.0 1.0 0.00 0.00 0.00 78 1008.8
20260902001451 79 320 0.0 1.0 0.00 0.00 0.00 78 1009.0
20260902000946 80 337 1.0 2.0 0.00 0.00 0.00 75 1008.9
20260902000444 80 166 0.0 2.0 0.00 0.00 0.00 73 1008.6
20260901235936 80 224 0.0 2.0 0.00 0.00 0.00 72 1009.0
20260901235431 80 230 0.0 1.0 0.00 0.00 0.00 71 1008.8
20260901234926 81 221 0.0 2.0 0.00 0.00 0.00 70 1008.9
20260901234419 81 205 1.0 3.0 0.00 0.00 0.00 70 1008.8
20260901233914 81 230 0.0 2.0 0.00 0.00 0.00 69 1008.9
20260901233409 81 210 0.0 3.0 0.00 0.00 0.00 68 1008.8
20260901232906 81 219 1.0 3.0 0.00 0.00 0.00 68 1008.9
20260901232400 81 219 1.0 2.0 0.00 0.00 0.00 69 1008.8
20260901231856 82 208 3.0 3.0 0.00 0.00 0.00 68 1008.6
20260901231352 82 206 1.0 3.0 0.00 0.00 0.00 67 1008.7
20260901230848 82 187 0.0 3.0 0.00 0.00 0.00 66 1008.5
20260901230348 82 162 1.0 3.0 0.00 0.00 0.00 66 1008.5
20260901225843 82 197 0.0 2.0 0.00 0.00 0.00 65 1008.2
20260901225342 82 186 2.0 3.0 0.00 0.00 0.00 64 1008.6
20260901224838 83 253 4.0 5.0 0.00 0.00 0.00 64 1009.0
20260901224334 83 246 1.0 3.0 0.00 0.00 0.00 65 1008.6
20260901223830 82 217 2.0 4.0 0.00 0.00 0.00 67 1008.8
20260901223325 83 222 3.0 6.0 0.00 0.00 0.00 66 1008.8
20260901222821 83 218 3.0 4.0 0.00 0.00 0.00 65 1008.7
20260901222317 83 213 4.0 5.0 0.00 0.00 0.00 63 1008.9
20260901221813 83 208 2.0 3.0 0.00 0.00 0.00 63 1009.3
20260901221309 84 195 0.0 2.0 0.00 0.00 0.00 61 1009.2
20260901220808 84 200 1.0 2.0 0.00 0.00 0.00 61 1009.1
20260901220307 84 212 0.0 2.0 0.00 0.00 0.00 59 1008.9
20260901215806 85 147 0.0 2.0 0.00 0.00 0.00 60 1008.8
20260901215306 84 212 0.0 1.0 0.00 0.00 0.00 61 1008.8
20260901214804 84 230 1.0 3.0 0.00 0.00 0.00 59 1008.9
20260901214303 85 230 1.0 3.0 0.00 0.00 0.00 56 1008.6
20260901213758 84 147 2.0 3.0 0.00 0.00 0.00 57 1008.6
20260901213258 84 193 0.0 2.0 0.00 0.00 0.00 58 1008.5
20260901212753 85 202 2.0 4.0 0.00 0.00 0.00 57 1008.9
20260901212248 85 201 2.0 4.0 0.00 0.00 0.00 56 1008.7
20260901211743 85 206 3.0 5.0 0.00 0.00 0.00 54 1008.7
20260901211240 85 196 3.0 5.0 0.00 0.00 0.00 55 1008.7
20260901210736 86 209 4.0 5.0 0.00 0.00 0.00 52 1008.6
20260901210230 87 227 0.0 4.0 0.00 0.00 0.00 50 1008.2
20260901205727 87 154 0.0 3.0 0.00 0.00 0.00 51 1008.2
20260901205226 86 182 2.0 6.0 0.00 0.00 0.00 53 1008.6
20260901204722 85 155 1.0 3.0 0.00 0.00 0.00 56 1008.7
20260901204219 84 199 3.0 3.0 0.00 0.00 0.00 56 1008.8
20260901203713 85 259 2.0 5.0 0.00 0.00 0.00 55 1009.1
20260901203213 85 190 3.0 4.0 0.00 0.00 0.00 54 1008.8
20260901202712 87 218 2.0 3.0 0.00 0.00 0.00 53 1009.1
20260901202208 86 208 2.0 5.0 0.00 0.00 0.00 54 1009.3
20260901201704 86 219 2.0 5.0 0.00 0.00 0.00 53 1009.5
20260901201157 86 221 4.0 8.0 0.00 0.00 0.00 54 1009.3
20260901200657 86 234 3.0 7.0 0.00 0.00 0.00 55 1009.7
20260901200152 85 204 3.0 6.0 0.00 0.00 0.00 55 1009.6
20260901195649 85 213 4.0 5.0 0.00 0.00 0.00 57 1009.4
20260901195144 85 204 4.0 6.0 0.00 0.00 0.00 56 1009.4
20260901194640 85 196 3.0 6.0 0.00 0.00 0.00 56 1009.6
20260901194135 85 212 5.0 8.0 0.00 0.00 0.00 56 1009.5
20260901193630 85 207 3.0 5.0 0.00 0.00 0.00 58 1009.4
20260901193124 86 182 3.0 7.0 0.00 0.00 0.00 56 1009.5
20260901192619 86 185 2.0 7.0 0.00 0.00 0.00 56 1009.5
20260901192114 88 223 1.0 4.0 0.00 0.00 0.00 50 1009.4
20260901191610 87 218 0.0 2.0 0.00 0.00 0.00 48 1009.2
20260901191107 86 159 2.0 5.0 0.00 0.00 0.00 48 1009.3
20260901190602 87 148 2.0 2.0 0.00 0.00 0.00 51 1009.4
20260901190101 87 178 1.0 3.0 0.00 0.00 0.00 50 1009.5
20260901185559 87 171 2.0 2.0 0.00 0.00 0.00 50 1009.5
20260901185058 88 192 1.0 3.0 0.00 0.00 0.00 49 1009.7
20260901184554 87 329 0.0 4.0 0.00 0.00 0.00 48 1009.8
20260901184049 89 206 1.0 3.0 0.00 0.00 0.00 46 1009.9
20260901183543 90 277 2.0 3.0 0.00 0.00 0.00 46 1010.1
20260901183039 89 174 2.0 4.0 0.00 0.00 0.00 48 1010.0
20260901182535 88 18 1.0 3.0 0.00 0.00 0.00 47 1010.0
20260901182030 88 206 0.0 4.0 0.00 0.00 0.00 47 1010.4
20260901181529 88 153 0.0 3.0 0.00 0.00 0.00 46 1010.4
20260901181023 87 193 0.0 3.0 0.00 0.00 0.00 48 1010.2
20260901180521 88 227 3.0 5.0 0.00 0.00 0.00 47 1010.3
20260901180016 89 197 0.0 3.0 0.00 0.00 0.00 49 1010.2
20260901175510 88 275 2.0 5.0 0.00 0.00 0.00 50 1010.0
20260901175004 87 204 1.0 5.0 0.00 0.00 0.00 52 1010.3
20260901174500 88 237 1.0 2.0 0.00 0.00 0.00 53 1010.2
20260901173956 86 173 0.0 3.0 0.00 0.00 0.00 51 1010.2
20260901173446 85 354 2.0 4.0 0.00 0.00 0.00 53 1010.4
20260901172942 86 165 0.0 4.0 0.00 0.00 0.00 57 1010.4
20260901172437 87 197 2.0 4.0 0.00 0.00 0.00 54 1010.5
20260901171935 88 229 0.0 4.0 0.00 0.00 0.00 51 1010.3
20260901171433 87 224 3.0 5.0 0.00 0.00 0.00 46 1010.3
20260901170933 86 183 1.0 3.0 0.00 0.00 0.00 54 1010.1
20260901170428 84 303 2.0 6.0 0.00 0.00 0.00 55 1010.3
20260901165927 85 21 2.0 6.0 0.00 0.00 0.00 58 1010.4
20260901165421 86 7 2.0 4.0 0.00 0.00 0.00 57 1010.5
20260901164918 86 89 0.0 3.0 0.00 0.00 0.00 60 1010.5
20260901164418 84 266 1.0 6.0 0.00 0.00 0.00 60 1010.2
20260901163913 85 11 0.0 4.0 0.00 0.00 0.00 63 1010.3
20260901163408 83 352 3.0 5.0 0.00 0.00 0.00 63 1010.5
20260901162902 83 22 3.0 5.0 0.00 0.00 0.00 64 1010.3
20260901162401 85 77 0.0 5.0 0.00 0.00 0.00 60 1010.6
20260901161855 84 162 2.0 3.0 0.00 0.00 0.00 62 1010.3
20260901161350 83 180 2.0 5.0 0.00 0.00 0.00 65 1010.6
20260901160845 83 284 0.0 3.0 0.00 0.00 0.00 68 1010.6
20260901160342 83 29 3.0 5.0 0.00 0.00 0.00 69 1010.5
20260901155840 82 264 3.0 6.0 0.00 0.00 0.00 71 1010.4
20260901155335 84 30 2.0 6.0 0.00 0.00 0.00 68 1010.4
20260901154832 83 170 0.0 3.0 0.00 0.00 0.00 69 1010.5
20260901154330 81 27 1.0 4.0 0.00 0.00 0.00 72 1010.6
20260901153825 81 19 4.0 7.0 0.00 0.00 0.00 71 1010.2
20260901153320 81 322 3.0 6.0 0.00 0.00 0.00 70 1010.3
20260901152819 82 298 2.0 4.0 0.00 0.00 0.00 72 1010.3
20260901152318 81 186 3.0 5.0 0.00 0.00 0.00 72 1010.4
20260901151814 80 156 0.0 7.0 0.00 0.00 0.00 72 1010.3
20260901151314 80 10 0.0 7.0 0.00 0.00 0.00 76 1010.3
20260901150808 80 39 0.0 5.0 0.00 0.00 0.00 75 1010.6
20260901150306 80 308 2.0 5.0 0.00 0.00 0.00 75 1010.3
20260901145803 80 164 0.0 3.0 0.00 0.00 0.00 76 1010.4
20260901145257 79 352 2.0 6.0 0.00 0.00 0.00 77 1010.7
20260901144753 80 317 2.0 6.0 0.00 0.00 0.00 75 1010.8
20260901144249 81 180 2.0 3.0 0.00 0.00 0.00 71 1010.5
20260901143744 81 164 2.0 3.0 0.00 0.00 0.00 74 1010.3
20260901143240 79 245 2.0 3.0 0.00 0.00 0.00 77 1010.4
20260901142737 78 333 1.0 3.0 0.00 0.00 0.00 78 1010.4
20260901142235 79 241 0.0 2.0 0.00 0.00 0.00 77 1010.6
20260901141731 78 205 0.0 2.0 0.00 0.00 0.00 79 1010.4
20260901141231 77 260 0.0 4.0 0.00 0.00 0.00 79 1010.5
20260901140729 76 311 2.0 3.0 0.00 0.00 0.00 80 1010.4
20260901140228 75 4 0.0 3.0 0.00 0.00 0.00 81 1010.3
20260901135723 75 345 1.0 3.0 0.00 0.00 0.00 80 1010.5
20260901135218 75 312 1.0 2.0 0.00 0.00 0.00 81 1010.3
20260901134714 74 29 1.0 2.0 0.00 0.00 0.00 85 1010.6
20260901134209 72 322 0.0 2.0 0.00 0.00 0.00 88 1010.6
20260901133709 71 49 0.0 1.0 0.00 0.00 0.00 91 1010.5
20260901133208 71 8 0.0 2.0 0.00 0.00 0.00 92 1010.5
20260901132706 70 321 0.0 1.0 0.00 0.00 0.00 93 1010.5
20260901132206 70 337 0.0 1.0 0.00 0.00 0.00 94 1010.4
20260901131702 70 317 1.0 1.0 0.00 0.00 0.00 95 1010.4
20260901131200 69 314 0.0 3.0 0.00 0.00 0.00 96 1010.5
20260901130655 68 24 2.0 2.0 0.00 0.00 0.00 97 1010.5
20260901130154 68 142 0.0 1.0 0.00 0.00 0.00 98 1010.3
20260901125653 68 50 0.0 1.0 0.00 0.00 0.00 98 1010.3
20260901125148 67 13 0.0 2.0 0.00 0.00 0.00 98 1010.2
20260901124643 67 217 0.0 1.0 0.00 0.00 0.00 99 1010.2
20260901124142 67 304 0.0 1.0 0.00 0.00 0.00 99 1010.2
20260901123637 66 351 0.0 1.0 0.00 0.00 0.00 99 1010.3
20260901123137 66 269 0.0 2.0 0.00 0.00 0.00 99 1010.2
20260901122635 66 329 1.0 2.0 0.00 0.00 0.00 99 1010.1
20260901122130 65 320 0.0 2.0 0.00 0.00 0.00 99 1010.1
20260901121625 65 170 0.0 2.0 0.00 0.00 0.00 99 1010.1
20260901121120 64 32 0.0 1.0 0.00 0.00 0.00 99 1010.1
20260901120615 64 287 0.0 2.0 0.00 0.00 0.00 99 1010.2
20260901120110 64 193 0.0 2.0 0.00 0.00 0.00 99 1010.0
20260901115605 64 349 0.0 2.0 0.00 0.00 0.00 99 1009.9
20260901115102 64 353 1.0 2.0 0.00 0.00 0.00 99 1010.0
20260901114558 64 21 0.0 1.0 0.00 0.00 0.00 99 1009.7
20260901114056 64 29 0.0 2.0 0.00 0.00 0.00 99 1010.0
20260901113555 64 352 0.0 2.0 0.00 0.00 0.00 99 1009.8
20260901113046 64 336 0.0 2.0 0.00 0.00 0.00 99 1009.6
20260901112545 64 348 1.0 1.0 0.00 0.00 0.00 99 1009.6
20260901112040 64 97 0.0 2.0 0.00 0.00 0.00 99 1009.7
20260901111539 65 66 1.0 2.0 0.00 0.00 0.00 99 1009.6
20260901111037 65 326 0.0 3.0 0.00 0.00 0.00 99 1009.4
20260901110533 66 282 1.0 2.0 0.00 0.00 0.00 99 1009.5
20260901110029 66 38 0.0 2.0 0.00 0.00 0.00 99 1009.5
20260901105525 66 291 0.0 2.0 0.00 0.00 0.00 99 1009.6
20260901105019 65 207 1.0 3.0 0.00 0.00 0.00 99 1009.6
20260901104515 65 269 0.0 2.0 0.00 0.00 0.00 99 1009.5
20260901104010 65 226 0.0 2.0 0.00 0.00 0.00 99 1009.6
20260901103504 65 225 0.0 3.0 0.00 0.00 0.00 99 1009.3
20260901103000 65 224 2.0 2.0 0.00 0.00 0.00 99 1009.5
20260901102454 65 349 0.0 2.0 0.00 0.00 0.00 99 1009.4
20260901101948 65 339 0.0 2.0 0.00 0.00 0.00 99 1009.3
20260901101443 65 269 0.0 1.0 0.00 0.00 0.00 99 1009.4
20260901100938 65 235 0.0 1.0 0.00 0.00 0.00 99 1009.3
20260901100433 65 316 0.0 2.0 0.00 0.00 0.00 99 1009.4
20260901095931 65 235 0.0 0.0 0.00 0.00 0.00 99 1009.1
20260901095431 66 246 0.0 1.0 0.00 0.00 0.00 99 1009.3
20260901094923 66 209 0.0 2.0 0.00 0.00 0.00 99 1009.2
20260901094418 65 290 0.0 2.0 0.00 0.00 0.00 99 1009.2
20260901093917 66 341 0.0 2.0 0.00 0.00 0.00 99 1008.8
20260901093412 66 345 0.0 2.0 0.00 0.00 0.00 99 1009.2
20260901092908 66 269 0.0 0.0 0.00 0.00 0.00 99 1009.2
20260901092403 66 212 0.0 2.0 0.00 0.00 0.00 99 1009.2
20260901091858 66 282 0.0 2.0 0.00 0.00 0.00 99 1009.2
20260901091353 66 29 0.0 2.0 0.00 0.00 0.00 99 1009.4
20260901090847 67 252 0.0 1.0 0.00 0.00 0.00 99 1009.1
20260901090342 67 220 2.0 3.0 0.00 0.00 0.00 99 1009.3
20260901085838 66 218 1.0 3.0 0.00 0.00 0.00 99 1009.1
20260901085333 66 309 0.0 1.0 0.00 0.00 0.00 99 1009.3
20260901084830 66 358 0.0 2.0 0.00 0.00 0.00 99 1009.3
20260901084325 66 312 0.0 2.0 0.00 0.00 0.00 98 1009.1
20260901083820 67 299 0.0 0.0 0.00 0.00 0.00 98 1009.1
20260901083315 67 323 0.0 2.0 0.00 0.00 0.00 98 1009.2
20260901082813 67 314 0.0 1.0 0.00 0.00 0.00 98 1009.2
20260901082309 67 316 0.0 2.0 0.00 0.00 0.00 98 1009.3
20260901081804 67 16 1.0 2.0 0.00 0.00 0.00 98 1009.2
20260901081304 67 333 2.0 3.0 0.00 0.00 0.00 98 1009.1
20260901080759 67 351 1.0 2.0 0.00 0.00 0.00 97 1009.4
20260901080258 68 12 1.0 2.0 0.00 0.00 0.00 97 1009.3
20260901075752 68 353 0.0 3.0 0.00 0.00 0.00 97 1009.4
20260901075247 68 5 0.0 2.0 0.00 0.00 0.00 96 1009.3
20260901074742 68 11 0.0 2.0 0.00 0.00 0.00 96 1009.5
20260901074237 68 309 0.0 2.0 0.00 0.00 0.00 96 1009.3
20260901073733 68 328 1.0 3.0 0.00 0.00 0.00 97 1009.4
20260901073229 68 322 0.0 3.0 0.00 0.00 0.00 97 1009.7
20260901072724 68 333 1.0 2.0 0.00 0.00 0.00 96 1009.4
20260901072219 69 268 0.0 2.0 0.00 0.00 0.00 96 1009.3
20260901071718 69 315 0.0 2.0 0.00 0.00 0.00 96 1009.4
20260901071212 69 116 0.0 2.0 0.00 0.00 0.00 96 1009.4
20260901070706 69 306 0.0 3.0 0.00 0.00 0.00 96 1009.5
20260901070202 69 114 1.0 4.0 0.00 0.00 0.00 96 1009.4
20260901065701 69 217 1.0 2.0 0.00 0.00 0.00 96 1009.3
20260901065156 69 333 2.0 5.0 0.00 0.00 0.00 95 1009.3
20260901064652 70 327 0.0 3.0 0.00 0.00 0.00 95 1009.3
20260901064149 70 334 2.0 4.0 0.00 0.00 0.00 94 1009.4
20260901063646 70 325 2.0 3.0 0.00 0.00 0.00 94 1009.5
20260901063141 71 324 3.0 4.0 0.00 0.00 0.00 94 1009.5
20260901062637 71 303 2.0 4.0 0.00 0.00 0.00 95 1009.4
20260901062133 70 314 1.0 3.0 0.00 0.00 0.00 95 1009.4
20260901061629 70 87 0.0 4.0 0.00 0.00 0.00 96 1009.2
20260901061129 70 269 1.0 2.0 0.00 0.00 0.00 96 1009.1
20260901060624 70 312 0.0 2.0 0.00 0.00 0.00 96 1009.2
20260901060119 70 326 0.0 2.0 0.00 0.00 0.00 96 1009.1
20260901055614 70 253 0.0 2.0 0.00 0.00 0.00 96 1009.2
20260901055110 70 322 1.0 2.0 0.00 0.00 0.00 96 1009.2
20260901054607 70 342 1.0 2.0 0.00 0.00 0.00 96 1009.0
20260901054102 70 342 2.0 3.0 0.00 0.00 0.00 96 1008.9
20260901053559 71 312 2.0 3.0 0.00 0.00 0.00 96 1008.9
20260901053054 71 303 2.0 3.0 0.00 0.00 0.00 96 1009.0
20260901052549 71 325 2.0 3.0 0.00 0.00 0.00 96 1008.9
20260901052050 71 319 0.0 3.0 0.00 0.00 0.00 96 1008.9
20260901051550 71 335 0.0 3.0 0.00 0.00 0.00 95 1008.8
20260901051049 71 320 2.0 3.0 0.00 0.00 0.00 95 1008.8
20260901050544 71 313 3.0 4.0 0.00 0.00 0.00 95 1008.7
20260901050039 71 318 1.0 2.0 0.00 0.00 0.00 95 1008.7
20260901045534 72 321 1.0 3.0 0.00 0.00 0.00 94 1008.6
20260901045034 72 32 0.0 3.0 0.00 0.00 0.00 94 1008.8
20260901044530 72 316 1.0 4.0 0.00 0.00 0.00 94 1008.9
20260901044026 72 53 0.0 2.0 0.00 0.00 0.00 94 1008.6
20260901043521 72 328 2.0 3.0 0.00 0.00 0.00 93 1008.7
20260901043017 73 319 0.0 3.0 0.00 0.00 0.00 93 1008.6
20260901042516 73 307 0.0 3.0 0.00 0.00 0.00 92 1008.9
20260901042011 73 229 0.0 4.0 0.00 0.00 0.00 92 1008.6
20260901041507 74 272 1.0 4.0 0.00 0.00 0.00 91 1008.5
20260901041001 74 323 0.0 4.0 0.00 0.00 0.00 90 1008.5
20260901040456 75 282 0.0 2.0 0.00 0.00 0.00 89 1008.7
20260901035954 75 180 0.0 3.0 0.00 0.00 0.00 89 1008.6
20260901035453 75 321 0.0 3.0 0.00 0.00 0.00 88 1008.3
20260901034952 76 255 0.0 3.0 0.00 0.00 0.00 88 1008.6
20260901034447 76 2 0.0 3.0 0.00 0.00 0.00 87 1008.6
20260901033942 76 180 2.0 2.0 0.00 0.00 0.00 87 1008.7
20260901033441 76 242 1.0 3.0 0.00 0.00 0.00 88 1008.5
20260901032939 77 328 0.0 3.0 0.00 0.00 0.00 88 1008.2
20260901032434 77 342 0.0 5.0 0.00 0.00 0.00 89 1008.6
20260901031929 77 0 0.0 2.0 0.00 0.00 0.00 90 1008.3
20260901031425 77 242 0.0 3.0 0.00 0.00 0.00 89 1008.5
20260901030924 77 297 0.0 2.0 0.00 0.00 0.00 90 1008.5
20260901030420 77 197 0.0 3.0 0.00 0.00 0.00 91 1008.3
20260901025919 77 269 0.0 2.0 0.00 0.00 0.00 92 1008.3
20260901025415 78 182 1.0 3.0 0.00 0.00 0.00 92 1008.3
20260901024908 78 203 0.0 3.0 0.00 0.00 0.00 92 1008.5
20260901024407 78 243 0.0 2.0 0.00 0.00 0.00 92 1008.2